When you browse on this site, cookies collect data to enhance your experience and personalize the content and advertising you see.
Visit our Privacy Policy to learn more. By continuing to use the site, you agree to this use of cookies and data.
  • In Spain
  • List of Countries
  • For 7 days
  • Water Temperature
  • Satellite Maps
  • Weather Map
  • Weather Widgets
  • user-avatar
    Login

    Hourly Weather Ordino

    Today, 13 December, Thursday

    Time Temperature Precipitation Wind Pressure Humidity
    00:00 +1°C° 0 mm 1 mps 628 mmHg 87%
    01:00 +1°C° 0 mm 1 mps 628 mmHg 87%
    02:00 0°C° 0 mm 1 mps 627 mmHg 87%
    03:00 0°C° 0 mm 1 mps 627 mmHg 87%
    04:00 +1°C° 0 mm 1 mps 626 mmHg 86%
    05:00 +1°C° 0 mm 1 mps 626 mmHg 85%
    06:00 +1°C° 0 mm 1 mps 625 mmHg 83%
    07:00 +1°C° 0.3 mm 1 mps 625 mmHg 82%
    08:00 +2°C° 0.3 mm 1 mps 625 mmHg 81%
    09:00 +2°C° 0.3 mm 1 mps 625 mmHg 79%
    10:00 +2°C° 1.2 mm 1 mps 624 mmHg 82%
    11:00 +2°C° 1.2 mm 1 mps 624 mmHg 86%
    12:00 +1°C° 1.2 mm 0 mps 624 mmHg 89%
    13:00 +2°C° 0.9 mm 1 mps 624 mmHg 90%
    14:00 +2°C° 0.9 mm 1 mps 624 mmHg 91%
    15:00 +2°C° 0.9 mm 1 mps 623 mmHg 92%
    16:00 +2°C° 0.6 mm 1 mps 623 mmHg 92%
    17:00 +1°C° 0.6 mm 2 mps 623 mmHg 92%
    18:00 +1°C° 0.6 mm 2 mps 624 mmHg 92%
    19:00 +1°C° 0.4 mm 2 mps 624 mmHg 91%
    20:00 +1°C° 0.4 mm 2 mps 624 mmHg 91%
    21:00 -1°C° 0.4 mm 3 mps 624 mmHg 90%
    22:00 -1°C° 0.5 mm 3 mps 625 mmHg 90%
    23:00 -1°C° 0.5 mm 3 mps 625 mmHg 90%

    Tomorrow, 14 December, Friday

    Time Temperature Precipitation Wind Pressure Humidity
    00:00 -1°C° 0.5 mm 3 mps 626 mmHg 91%
    01:00 -1°C° 0.7 mm 3 mps 626 mmHg 91%
    02:00 -1°C° 0.7 mm 2 mps 627 mmHg 91%
    03:00 -1°C° 0.7 mm 2 mps 627 mmHg 90%
    04:00 -1°C° 0.5 mm 2 mps 627 mmHg 90%
    05:00 -1°C° 0.5 mm 2 mps 628 mmHg 90%
    06:00 -1°C° 0.5 mm 2 mps 628 mmHg 90%
    07:00 +1°C° 0.3 mm 2 mps 629 mmHg 90%
    08:00 0°C° 0.3 mm 3 mps 629 mmHg 89%
    09:00 0°C° 0.3 mm 3 mps 630 mmHg 89%
    10:00 +1°C° 0 mm 3 mps 631 mmHg 87%
    11:00 +1°C° 0 mm 3 mps 631 mmHg 85%
    12:00 +2°C° 0 mm 3 mps 631 mmHg 83%
    13:00 +2°C° 0 mm 3 mps 632 mmHg 82%
    14:00 +1°C° 0 mm 3 mps 632 mmHg 82%
    15:00 +1°C° 0 mm 3 mps 632 mmHg 82%
    16:00 +1°C° 0 mm 3 mps 632 mmHg 84%
    17:00 0°C° 0 mm 3 mps 632 mmHg 86%
    18:00 -1°C° 0 mm 3 mps 632 mmHg 88%
    19:00 -1°C° 0 mm 3 mps 633 mmHg 88%
    20:00 -1°C° 0 mm 3 mps 633 mmHg 88%
    21:00 -1°C° 0 mm 3 mps 633 mmHg 88%
    22:00 -2°C° 0 mm 3 mps 633 mmHg 87%
    23:00 -2°C° 0 mm 2 mps 633 mmHg 87%

    Day after tomorrow, 15 December, Saturday

    Time Temperature Precipitation Wind Pressure Humidity
    00:00 -3°C° 0 mm 2 mps 633 mmHg 87%
    01:00 -3°C° 0 mm 2 mps 633 mmHg 86%
    02:00 -3°C° 0 mm 2 mps 633 mmHg 84%
    03:00 -4°C° 0 mm 2 mps 632 mmHg 82%
    04:00 -4°C° 0 mm 2 mps 632 mmHg 79%
    05:00 -4°C° 0 mm 2 mps 632 mmHg 76%
    06:00 -3°C° 0 mm 2 mps 632 mmHg 73%
    07:00 -2°C° 0 mm 2 mps 633 mmHg 71%
    08:00 +2°C° 0 mm 1 mps 634 mmHg 69%
    09:00 +3°C° 0 mm 1 mps 634 mmHg 67%
    10:00 +4°C° 0 mm 1 mps 635 mmHg 68%
    11:00 +6°C° 0 mm 1 mps 635 mmHg 69%
    12:00 +7°C° 0 mm 1 mps 635 mmHg 71%
    13:00 +7°C° 0 mm 1 mps 635 mmHg 74%
    14:00 +7°C° 0 mm 1 mps 635 mmHg 78%
    15:00 +7°C° 0 mm 1 mps 634 mmHg 81%
    16:00 +6°C° 0 mm 1 mps 634 mmHg 83%
    17:00 +5°C° 0 mm 1 mps 634 mmHg 85%
    18:00 +4°C° 0 mm 1 mps 633 mmHg 87%
    19:00 +4°C° 0 mm 1 mps 633 mmHg 87%
    20:00 +4°C° 0 mm 1 mps 633 mmHg 87%
    21:00 +4°C° 0 mm 1 mps 633 mmHg 87%
    22:00 +4°C° 0 mm 1 mps 633 mmHg 87%
    23:00 +4°C° 0 mm 1 mps 633 mmHg 87%

    16 December, Sunday

    Time Temperature Precipitation Wind Pressure Humidity
    00:00 +4°C° 0 mm 1 mps 633 mmHg 87%
    01:00 +4°C° 0 mm 1 mps 632 mmHg 88%
    02:00 +4°C° 0 mm 1 mps 632 mmHg 89%
    03:00 +4°C° 0 mm 1 mps 632 mmHg 91%
    04:00 +3°C° 0.2 mm 1 mps 632 mmHg 91%
    05:00 +3°C° 0.2 mm 1 mps 632 mmHg 92%
    06:00 +3°C° 0.2 mm 1 mps 631 mmHg 92%
    07:00 +3°C° 0.6 mm 1 mps 632 mmHg 93%
    08:00 +4°C° 0.6 mm 1 mps 632 mmHg 94%
    09:00 +4°C° 0.6 mm 1 mps 632 mmHg 95%
    10:00 +4°C° 0.3 mm 1 mps 632 mmHg 94%
    11:00 +3°C° 0.3 mm 2 mps 632 mmHg 93%
    12:00 +3°C° 0.3 mm 2 mps 632 mmHg 92%
    13:00 +3°C° 0.4 mm 2 mps 632 mmHg 92%
    14:00 +3°C° 0.4 mm 2 mps 632 mmHg 92%
    15:00 +3°C° 0.4 mm 2 mps 632 mmHg 92%
    16:00 +2°C° 0.2 mm 2 mps 632 mmHg 92%
    17:00 +1°C° 0.2 mm 2 mps 633 mmHg 92%
    18:00 +1°C° 0.2 mm 2 mps 633 mmHg 92%
    19:00 -1°C° 0 mm 2 mps 633 mmHg 91%
    20:00 -1°C° 0 mm 2 mps 633 mmHg 89%
    21:00 -2°C° 0 mm 2 mps 633 mmHg 87%
    22:00 -2°C° 0 mm 2 mps 634 mmHg 86%
    23:00 -2°C° 0 mm 2 mps 634 mmHg 85%

    17 December, Monday

    Time Temperature Precipitation Wind Pressure Humidity
    00:00 0°C° 0 mm 1 mps 634 mmHg 84%
    01:00 0°C° 0 mm 1 mps 634 mmHg 85%
    02:00 0°C° 0 mm 1 mps 634 mmHg 85%
    03:00 0°C° 0 mm 1 mps 634 mmHg 86%
    04:00 -1°C° 0 mm 1 mps 634 mmHg 86%
    05:00 -1°C° 0 mm 1 mps 634 mmHg 86%
    06:00 -1°C° 0 mm 1 mps 634 mmHg 86%
    07:00 -1°C° 0 mm 1 mps 635 mmHg 84%
    08:00 0°C° 0 mm 1 mps 635 mmHg 82%
    09:00 +1°C° 0 mm 1 mps 636 mmHg 81%
    10:00 +1°C° 0 mm 1 mps 636 mmHg 77%
    11:00 +2°C° 0 mm 1 mps 636 mmHg 73%
    12:00 +3°C° 0 mm 1 mps 637 mmHg 69%
    13:00 +3°C° 0 mm 1 mps 636 mmHg 70%
    14:00 +3°C° 0 mm 1 mps 636 mmHg 71%
    15:00 +3°C° 0 mm 1 mps 636 mmHg 72%
    16:00 +1°C° 0 mm 1 mps 636 mmHg 76%
    17:00 0°C° 0 mm 1 mps 636 mmHg 80%
    18:00 -4°C° 0 mm 2 mps 635 mmHg 83%
    19:00 -2°C° 0 mm 1 mps 635 mmHg 79%
    20:00 -2°C° 0 mm 1 mps 635 mmHg 74%
    21:00 -2°C° 0 mm 1 mps 635 mmHg 70%
    22:00 -2°C° 0 mm 1 mps 635 mmHg 70%
    23:00 -2°C° 0 mm 1 mps 635 mmHg 70%

    18 December, Tuesday

    Time Temperature Precipitation Wind Pressure Humidity
    00:00 -2°C° 0 mm 1 mps 635 mmHg 70%
    01:00 -2°C° 0 mm 1 mps 635 mmHg 71%
    02:00 -2°C° 0 mm 1 mps 634 mmHg 72%
    03:00 -2°C° 0 mm 1 mps 634 mmHg 73%
    04:00 -2°C° 0 mm 1 mps 634 mmHg 72%
    05:00 -4°C° 0 mm 2 mps 633 mmHg 71%
    06:00 -4°C° 0 mm 2 mps 633 mmHg 69%
    07:00 -3°C° 0 mm 2 mps 633 mmHg 66%
    08:00 -2°C° 0 mm 2 mps 633 mmHg 63%
    09:00 -1°C° 0 mm 3 mps 633 mmHg 59%
    10:00 0°C° 0 mm 3 mps 633 mmHg 59%
    11:00 +1°C° 0 mm 3 mps 633 mmHg 58%
    12:00 +2°C° 0 mm 3 mps 633 mmHg 57%
    13:00 +2°C° 0 mm 3 mps 632 mmHg 61%
    14:00 +1°C° 0 mm 3 mps 631 mmHg 65%
    15:00 +1°C° 0 mm 3 mps 631 mmHg 70%
    16:00 0°C° 0.2 mm 3 mps 631 mmHg 74%
    17:00 +1°C° 0.2 mm 2 mps 630 mmHg 78%
    18:00 -1°C° 0.2 mm 2 mps 630 mmHg 82%
    19:00 -1°C° 0.3 mm 2 mps 630 mmHg 83%
    20:00 -1°C° 0.3 mm 2 mps 630 mmHg 85%
    21:00 -1°C° 0.3 mm 2 mps 630 mmHg 87%
    22:00 -1°C° 0.1 mm 2 mps 630 mmHg 88%
    23:00 0°C° 0.1 mm 1 mps 629 mmHg 89%
    Show more